Weather in Bykovo

Russia / Volgograd Oblast     49°45′55″N   45°23′18″E
temp.,
°C
wind,
m/s
gust,
m/s
humid.,
%
clouds,
%
prec.,
mm/h
press.,
hPa
HPBL,
m
16 june, wed
wed1600:00+19w36813 0.0 1008104
03:00+18wsw358132 0.0 100982
06:00+20wsw46817 0.0 1009287
09:00+24wsw45610 0.0 1010925
12:00+27wsw67490 0.0 10111693
15:00+29wnw67440 0.0 10111857
18:00+27nw46540 0.0 1011545
21:00+23nnw33670 0.0 101227
17 june, thu
thu1700:00+21n33785 0.0 101242
03:00+20n358036 0.0 101394
06:00+21nne487924 0.0 1013248
09:00+25ne676394 0.0 1014645
12:00+27nne7853100 0.0 10141143
15:00+28nne8952100 0.0 10151154
18:00+25nne6105890 0.0 1016810
21:00+21ne7146375 0.0 1018457
18 june, fri
fri1800:00+19ne816565 0.0 1018572
03:00+17ne5136786 0.0 1020423
06:00+17ne7146960 0.0 1021603
09:00+22ne8114950 0.0 10221127
12:00+25ne894091 0.0 10221631
15:00+23ne8944100 0.0 10221489
18:00+21ne7104895 0.0 1023958
21:00+17ne5126112 0.0 1025290
19 june, sat
sat1900:00+15ne512720 0.0 1025241
03:00+13ne512760 0.0 1025249
06:00+16ne511710 0.0 1026325
09:00+22e68510 0.0 10261166
12:00+25e67400 0.0 10261570
15:00+26ene67340 0.0 10241683
18:00+24ene58420 0.0 1024452
21:00+19ne49540 0.0 1024126
20 june, sun
sun2000:00+17ne49580 0.0 1024137
03:00+16ne48650 0.0 1025127
06:00+18ne410670 0.0 1025246
09:00+25e67450 0.0 1025894
12:00+28e56340 0.0 10241548
15:00+30e56320 0.0 10221766
18:00+28ene47420 0.0 1022276
21:00+23ene485390 0.0 1022115